Weather History for KCMI - October, 2012

Change the Weather History Date:

Tuesday, October 30, 2012

  Actual Average Record
Temperature  
Mean Temperature 43 °F 49 °F  
Max Temperature 50 °F 60 °F 77 °F (1999)
Min Temperature 36 °F 38 °F 29 °F (2008)
Degree Days  
Heating Degree Days 22 16  
Month to date heating degree days 372 352  
Since 1 July heating degree days 461 444  
Cooling Degree Days 0 0  
Month to date cooling degree days 6 14  
Year to date cooling degree days 1290 939  
Moisture  
Dew Point 27 °F    
Average Humidity 55    
Maximum Humidity 70    
Minimum Humidity 39    
Precipitation  
Precipitation 0.00 in 0.09 in 0.28 in (2004)
Month to date precipitation 4.26 3.05  
Year to date precipitation 25.43 33.61  
Sea Level Pressure  
Sea Level Pressure 29.87 in    
Wind  
Wind Speed 20 mph (NNW)    
Max Wind Speed 32 mph    
Max Gust Speed 39 mph    
Visibility 10 miles    
Events      
T = Trace of Precipitation, MM = Missing Value Source: NWS Daily Summary

Daily Weather History Graph

Daily Weather History Graph

Search for Another Location

Airport or City:

Trip Planner

Search our weather history database for the weather conditions in past years. The results will help you decide how hot, cold, wet, or windy it might be!

Date:

Astronomy

Oct. 30, 2012 Rise Set
Actual Time 7:20 AM CDT 5:52 PM CDT
Civil Twilight 6:52 AM CDT 6:20 PM CDT
Nautical Twilight 6:20 AM CDT 6:52 PM CDT
Astronomical Twilight 5:49 AM CDT 7:23 PM CDT
Moon 6:21 PM CDT (10/30) 8:06 AM CDT (10/30)
Length of Visible Light 11h 27m
Length of Day
10h 31m
Full, 99% of the Moon is Illuminated
Oct 30
Full
Nov 6
Last Quarter
Nov 13
New
Nov 20
First Quarter
Nov 28
Full

Hourly Weather History & Observations

Time (CDT) Temp. Windchill Dew Point Humidity Pressure Visibility Wind Dir Wind Speed Gust Speed Precip Events Conditions
12:53 AM 37.9 °F 28.9 °F 28.0 °F 68% 30.03 in 10.0 mi NW 16.1 mph - N/A   Clear
2:53 AM 37.9 °F 27.9 °F 28.0 °F 68% 29.97 in 10.0 mi NW 19.6 mph 28.8 mph N/A   Clear
3:53 AM 37.9 °F 27.6 °F 27.0 °F 65% 29.95 in 10.0 mi NNW 20.7 mph 29.9 mph N/A   Clear
4:53 AM 37.0 °F 25.9 °F 27.0 °F 67% 29.93 in 10.0 mi NNW 23.0 mph 28.8 mph N/A   Clear
5:53 AM 37.0 °F 25.9 °F 26.1 °F 65% 29.92 in 10.0 mi NNW 23.0 mph 29.9 mph N/A   Clear
6:53 AM 37.0 °F 25.9 °F 27.0 °F 67% 29.90 in 10.0 mi NNW 23.0 mph 31.1 mph N/A   Clear
7:53 AM 36.0 °F 24.7 °F 27.0 °F 70% 29.90 in 10.0 mi NNW 21.9 mph 31.1 mph N/A   Clear
8:53 AM 37.9 °F 26.6 °F 28.0 °F 68% 29.88 in 10.0 mi NNW 25.3 mph 33.4 mph N/A   Clear
9:53 AM 39.9 °F 29.5 °F 28.0 °F 63% 29.86 in 10.0 mi NNW 24.2 mph 34.5 mph N/A   Clear
10:53 AM 41.0 °F 30.5 °F 28.0 °F 60% 29.85 in 10.0 mi NNW 26.5 mph 34.5 mph N/A   Mostly Cloudy
11:53 AM 43.0 °F 33.5 °F 28.0 °F 56% 29.85 in 10.0 mi NNW 24.2 mph 33.4 mph N/A   Clear
12:53 PM 46.0 °F 37.0 °F 27.0 °F 47% 29.83 in 10.0 mi NNW 27.6 mph 35.7 mph N/A   Clear
1:53 PM 48.0 °F - 28.0 °F 46% 29.82 in 10.0 mi NNW 24.2 mph 31.1 mph N/A   Clear
2:53 PM 48.9 °F - 27.0 °F 43% 29.81 in 10.0 mi NNW 25.3 mph 32.2 mph N/A   Clear
3:53 PM 50.0 °F - 27.0 °F 41% 29.80 in 10.0 mi NNW 24.2 mph 32.2 mph N/A   Clear
4:53 PM 48.0 °F - 27.0 °F 44% 29.82 in 10.0 mi NNW 21.9 mph 28.8 mph N/A   Scattered Clouds
5:53 PM 46.9 °F - 26.1 °F 44% 29.83 in 10.0 mi NW 20.7 mph 27.6 mph N/A   Overcast
6:53 PM 45.0 °F 38.9 °F 27.0 °F 49% 29.85 in 10.0 mi NW 12.7 mph - N/A   Overcast
7:53 PM 44.1 °F 36.5 °F 26.1 °F 49% 29.86 in 10.0 mi NNW 17.3 mph - N/A   Overcast
8:53 PM 43.0 °F 36.0 °F 27.0 °F 53% 29.85 in 10.0 mi NW 13.8 mph - N/A   Overcast
9:53 PM 41.0 °F 33.5 °F 26.1 °F 55% 29.85 in 10.0 mi NW 13.8 mph - N/A   Clear
10:53 PM 39.9 °F 32.5 °F 25.0 °F 55% 29.84 in 10.0 mi NW 12.7 mph - N/A   Clear
11:53 PM 39.9 °F 31.8 °F 25.0 °F 55% 29.83 in 10.0 mi NNW 15.0 mph - N/A   Clear